Change the Weather History Date:

Monday, May 13, 2013

  Actual Average Record
Temperature  
Mean Temperature 64 °F -  
Max Temperature 86 °F 69 °F 91 °F (2007)
Min Temperature 42 °F 42 °F 23 °F (1997)
Degree Days  
Heating Degree Days 1    
Growing Degree Days 14 (Base 50)    
Moisture  
Dew Point 37 °F    
Average Humidity 40    
Maximum Humidity 61    
Minimum Humidity 23    
Precipitation  
Precipitation 0.00 in - - ()
Sea Level Pressure  
Sea Level Pressure 29.92 in    
Wind  
Wind Speed 8 mph (South)    
Max Wind Speed 28 mph    
Max Gust Speed 36 mph    
Visibility 10 miles    
Events      
Averages and records for this station are not official NWS values.
T = Trace of Precipitation, MM = Missing Value Source: NWS Daily Summary

Daily Weather History Graph

Daily Weather History Graph

Search for Another Location

Airport or City:

Trip Planner

Search our weather history database for the weather conditions in past years. The results will help you decide how hot, cold, wet, or windy it might be!

Date:

Astronomy

May. 13, 2013 Rise Set
Actual Time 5:56 AM CDT 8:37 PM CDT
Civil Twilight 5:23 AM CDT 9:10 PM CDT
Nautical Twilight 4:41 AM CDT 9:52 PM CDT
Astronomical Twilight 3:54 AM CDT 10:40 PM CDT
Moon 8:42 AM CDT (5/13) 11:47 PM CDT (5/13)
Length of Visible Light 15h 47m
Length of Day
14h 41m
Waxing Crescent, 12% of the Moon is Illuminated
May 13
Waxing Crescent
May 17
First Quarter
May 24
Full
May 31
Last Quarter
Jun 8
New

Hourly Weather History & Observations

Time (CDT) Temp. Windchill Dew Point Humidity Pressure Visibility Wind Dir Wind Speed Gust Speed Precip Events Conditions
12:12 AM 42.8 °F - 28.4 °F 57% 30.11 in 10.0 mi Calm Calm - N/A   Clear
12:32 AM 44.6 °F - 26.6 °F 49% 30.10 in 10.0 mi Calm Calm - N/A   Clear
12:53 AM 44.6 °F - 30.2 °F 57% 30.10 in 10.0 mi Calm Calm - N/A   Clear
1:12 AM 44.6 °F - 32.0 °F 61% 30.10 in 10.0 mi Calm Calm - N/A   Clear
1:32 AM 44.6 °F - 30.2 °F 57% 30.10 in 10.0 mi Calm Calm - N/A   Clear
1:52 AM 44.6 °F - 30.2 °F 57% 30.10 in 10.0 mi Calm Calm - N/A   Clear
2:12 AM 44.6 °F - 26.6 °F 49% 30.09 in 10.0 mi Calm Calm - N/A   Clear
2:33 AM 44.6 °F 41.4 °F 28.4 °F 53% 30.09 in 10.0 mi ESE 5.8 mph - N/A   Clear
2:52 AM 46.4 °F 44.3 °F 26.6 °F 46% 30.09 in 10.0 mi SSE 4.6 mph - N/A   Clear
3:12 AM 46.4 °F 43.5 °F 26.6 °F 46% 30.08 in 10.0 mi SSE 5.8 mph - N/A   Clear
3:33 AM 46.4 °F 42.9 °F 24.8 °F 43% 30.08 in 10.0 mi South 6.9 mph - N/A   Clear
3:52 AM 46.4 °F 43.5 °F 24.8 °F 43% 30.07 in 10.0 mi South 5.8 mph - N/A   Clear
4:12 AM 46.4 °F 43.5 °F 24.8 °F 43% 30.07 in 10.0 mi SSE 5.8 mph - N/A   Clear
4:33 AM 44.6 °F 40.7 °F 26.6 °F 49% 30.06 in 10.0 mi SSE 6.9 mph - N/A   Clear
4:52 AM 46.4 °F 43.5 °F 26.6 °F 46% 30.06 in 10.0 mi SSE 5.8 mph - N/A   Clear
5:12 AM 46.4 °F 44.3 °F 24.8 °F 43% 30.06 in 10.0 mi South 4.6 mph - N/A   Clear
5:33 AM 44.6 °F 42.2 °F 24.8 °F 46% 30.05 in 10.0 mi South 4.6 mph - N/A   Clear
5:52 AM 44.6 °F 42.2 °F 26.6 °F 49% 30.05 in 10.0 mi South 4.6 mph - N/A   Clear
6:12 AM 44.6 °F 43.1 °F 26.6 °F 49% 30.05 in 10.0 mi South 3.5 mph - N/A   Clear
6:33 AM 44.6 °F 43.1 °F 26.6 °F 49% 30.05 in 10.0 mi South 3.5 mph - N/A   Clear
6:52 AM 44.6 °F 41.4 °F 28.4 °F 53% 30.04 in 10.0 mi SSE 5.8 mph - N/A   Clear
7:12 AM 48.2 °F - 28.4 °F 46% 30.04 in 10.0 mi South 4.6 mph - N/A   Clear
7:33 AM 48.2 °F - 26.6 °F 43% 30.04 in 10.0 mi South 6.9 mph - N/A   Clear
7:52 AM 51.8 °F - 26.6 °F 38% 30.04 in 10.0 mi South 8.1 mph - N/A   Clear
8:12 AM 53.6 °F - 26.6 °F 35% 30.03 in 10.0 mi South 9.2 mph - N/A   Clear
8:33 AM 55.4 °F - 23.0 °F 29% 30.03 in 10.0 mi South 11.5 mph - N/A   Clear
8:52 AM 57.2 °F - 24.8 °F 29% 30.02 in 10.0 mi SSE 9.2 mph - N/A   Clear
9:12 AM 57.2 °F - 26.6 °F 31% 30.01 in 10.0 mi SSE 9.2 mph - N/A   Clear
9:33 AM 59.0 °F - 28.4 °F 31% 30.00 in 10.0 mi SSE 13.8 mph 18.4 mph N/A   Scattered Clouds
9:52 AM 60.8 °F - 33.8 °F 36% 29.99 in 10.0 mi South 12.7 mph 18.4 mph N/A   Scattered Clouds
10:12 AM 60.8 °F - 35.6 °F 39% 29.98 in 10.0 mi South 13.8 mph 17.3 mph N/A   Scattered Clouds
10:33 AM 64.4 °F - 37.4 °F 37% 29.98 in 10.0 mi South 15.0 mph 20.7 mph N/A   Scattered Clouds
10:52 AM 64.4 °F - 39.2 °F 40% 29.97 in 10.0 mi South 16.1 mph - N/A   Scattered Clouds
11:12 AM 66.2 °F - 39.2 °F 37% 29.96 in 10.0 mi South 18.4 mph 24.2 mph N/A   Clear
11:33 AM 66.2 °F - 41.0 °F 40% 29.95 in 10.0 mi South 18.4 mph 24.2 mph N/A   Clear
11:52 AM 69.8 °F - 41.0 °F 35% 29.93 in 10.0 mi SSE 16.1 mph 27.6 mph N/A   Clear
12:13 PM 69.8 °F - 42.8 °F 38% 29.92 in 10.0 mi South 20.7 mph 25.3 mph N/A   Clear
12:33 PM 71.6 °F - 42.8 °F 35% 29.90 in 10.0 mi SSE 17.3 mph 25.3 mph N/A   Clear
12:52 PM 71.6 °F - 42.8 °F 35% 29.89 in 10.0 mi South 19.6 mph 26.5 mph N/A   Clear
1:12 PM 71.6 °F - 42.8 °F 35% 29.87 in 10.0 mi South 20.7 mph 27.6 mph N/A   Clear
1:33 PM 73.4 °F - 42.8 °F 33% 29.86 in 10.0 mi South 19.6 mph 28.8 mph N/A   Clear
1:52 PM 73.4 °F - 42.8 °F 33% 29.85 in 10.0 mi South 21.9 mph 29.9 mph N/A   Clear
2:12 PM 75.2 °F - 42.8 °F 31% 29.84 in 10.0 mi South 19.6 mph 27.6 mph N/A   Clear
2:33 PM 77.0 °F - 42.8 °F 29% 29.82 in 10.0 mi South 23.0 mph 34.5 mph N/A   Clear
3:33 PM 82.4 °F - 42.8 °F 25% 29.78 in 10.0 mi SSW 24.2 mph 32.2 mph N/A   Clear
3:52 PM 80.6 °F - 42.8 °F 26% 29.78 in 10.0 mi SSW 27.6 mph 32.2 mph N/A   Clear
4:12 PM 82.4 °F - 42.8 °F 25% 29.78 in 10.0 mi SSW 19.6 mph 34.5 mph N/A   Clear
4:33 PM 82.4 °F - 44.6 °F 26% 29.77 in 10.0 mi SSW 25.3 mph 35.7 mph N/A   Clear
4:52 PM 84.2 °F - 44.6 °F 25% 29.76 in 10.0 mi SW 24.2 mph 34.5 mph N/A   Clear
5:12 PM 84.2 °F - 42.8 °F 23% 29.76 in 10.0 mi SW 24.2 mph 35.7 mph N/A   Clear
5:33 PM 84.2 °F - 44.6 °F 25% 29.75 in 10.0 mi WSW 17.3 mph 29.9 mph N/A   Clear
5:52 PM 86.0 °F - 44.6 °F 23% 29.74 in 10.0 mi WSW 25.3 mph 32.2 mph N/A   Clear
6:33 PM 84.2 °F - 44.6 °F 25% 29.74 in 10.0 mi WSW 16.1 mph 25.3 mph N/A   Clear
7:12 PM 82.4 °F - 46.4 °F 28% 29.73 in 10.0 mi WSW 10.4 mph - N/A   Clear
7:33 PM 82.4 °F - 46.4 °F 28% 29.73 in 10.0 mi SW 8.1 mph - N/A   Clear
7:52 PM 80.6 °F - 46.4 °F 30% 29.72 in 10.0 mi SW 9.2 mph - N/A   Clear
8:12 PM 78.8 °F - 46.4 °F 32% 29.72 in 10.0 mi SW 9.2 mph - N/A   Clear
8:33 PM 77.0 °F - 48.2 °F 36% 29.72 in 10.0 mi SSW 8.1 mph - N/A   Clear
8:52 PM 75.2 °F - 48.2 °F 38% 29.72 in 10.0 mi SSW 9.2 mph - N/A   Clear
9:12 PM 75.2 °F - 48.2 °F 38% 29.72 in 10.0 mi SSW 9.2 mph - N/A   Clear
9:33 PM 73.4 °F - 48.2 °F 41% 29.72 in 10.0 mi SW 9.2 mph - N/A   Clear
9:52 PM 71.6 °F - 48.2 °F 43% 29.73 in 10.0 mi SW 6.9 mph - N/A   Clear
10:13 PM 69.8 °F - 48.2 °F 46% 29.73 in 10.0 mi WSW 8.1 mph - N/A   Clear
10:32 PM 69.8 °F - 48.2 °F 46% 29.73 in 10.0 mi WSW 5.8 mph - N/A   Clear
10:52 PM 66.2 °F - 48.2 °F 52% 29.74 in 10.0 mi WSW 8.1 mph - N/A   Clear
11:13 PM 66.2 °F - 48.2 °F 52% 29.74 in 10.0 mi WSW 8.1 mph - N/A   Clear
11:32 PM 66.2 °F - 48.2 °F 52% 29.74 in 10.0 mi Calm Calm - N/A   Clear
11:52 PM 64.4 °F - 48.2 °F 56% 29.74 in 10.0 mi SSW 3.5 mph - N/A   Clear